Wind_Speed
16 12 14 16 16 15 14 16 13 7 10 5 14 17 18 17 17 16 16 16 15 15 14 14 8 4 3 4 2 7 4 1 8 20 16 19 21 18 23 27 28 28 30 31
10 14 16 17 7 10 14 16 16 15 10 9 16 19 19 18 17 17 17 18 17 14 11 11 12 9 2 2 4 5 2 2 4 17 26 19 24 19 18 21 24 29 28 25
14 17 10 3 11 14 15 16 15 14 9 10 18 23 24 26 25 17 15 16 12 13 8 9 10 9 6 5 2 1 2 2 5 9 11 16 18 22 25 27 30 33 27 28
11 12 3 10 13 12 15 12 12 10 10 12 2 12 9 7 9 10 9 7 10 10 12 9 10 11 7 5 2 3 3 3 6 2 10 11 17 18 27 34 29 23 32 32
15 11 10 14 13 7 12 2 9 13 14 16 20 12 15 18 16 12 9 8 8 7 6 5 5 3 3 3 2 3 4 6 5 5 8 10 17 20 25 26 24 21 25 31
17 12 11 12 14 13 10 10 15 17 15 16 20 18 14 13 15 16 9 8 5 6 6 4 1 4 4 4 5 3 4 5 7 7 7 10 15 15 19 20 18 25 27 25
21 21 21 17 15 15 13 13 12 15 14 14 5 6 12 8 6 5 3 5 5 8 8 6 5 5 6 8 9 8 8 7 7 9 11 11 16 13 18 20 20 22 20 24
17 18 18 18 17 16 12 14 11 8 11 5 11 7 11 9 10 2 5 6 6 8 6 5 6 6 10 11 12 10 11 13 12 11 12 13 16 16 19 20 19 19 23 24
12 12 7 12 13 15 12 10 10 13 19 14 16 16 12 11 8 7 8 6 5 8 7 7 10 10 10 10 11 15 15 14 14 15 13 15 16 19 20 22 21 19 20 23
16 12 9 7 10 13 12 9 6 8 13 18 16 17 13 21 17 9 6 5 4 5 8 11 13 15 16 14 15 15 16 17 18 17 18 18 17 18 20 21 22 22 24 21
13 12 15 8 11 18 11 16 16 16 10 6 11 6 11 1 5 2 4 5 8 11 13 14 14 14 17 19 19 20 20 19 20 20 18 20 20 20 21 21 22 23 25 25
9 7 12 19 14 16 15 16 15 6 14 12 14 17 12 9 5 4 7 14 12 9 11 14 14 16 18 19 22 24 23 25 23 22 23 21 21 22 22 22 23 25 25 24
5 4 7 12 13 13 13 16 17 16 14 21 14 13 2 9 9 11 14 13 12 13 13 11 15 15 17 21 23 24 26 27 27 23 25 23 22 22 23 24 24 24 25 26
7 11 15 14 14 3 7 11 12 11 10 16 19 23 21 16 15 16 17 16 17 17 14 14 16 16 20 24 27 28 30 29 28 26 27 25 22 23 24 25 24 26 25 27
9 16 18 21 21 18 17 19 19 20 19 19 22 24 22 21 20 19 15 16 17 16 20 21 18 19 21 28 29 35 37 33 30 27 28 26 25 26 26 26 27 26 26 28
5 9 14 16 17 17 18 18 19 21 23 24 25 26 25 28 17 16 16 17 15 19 22 21 23 23 21 28 29 33 35 31 30 25 30 29 28 26 27 26 27 26 27 27
6 5 6 13 10 12 12 19 14 21 16 16 21 21 17 20 18 18 18 18 20 23 27 25 24 19 17 27 28 26 31 32 26 28 31 30 29 28 30 29 29 28 27 26
13 12 7 9 13 13 3 14 19 11 13 16 19 20 20 20 20 21 22 22 26 26 21 21 21 19 27 25 32 32 34 31 34 31 32 31 30 29 31 27 30 25 26 25
10 8 5 4 8 16 15 9 11 14 18 20 22 16 18 21 25 26 20 21 22 25 23 18 26 29 33 30 33 32 36 32 31 35 33 30 27 28 30 28 31 25 26 25
6 9 7 7 5 5 10 7 8 13 17 14 18 20 24 22 17 20 19 25 27 27 22 21 31 34 33 30 31 29 30 32 28 32 36 30 27 28 28 30 30 26 27 26
4 4 11 11 7 10 8 11 16 12 13 24 22 23 24 24 21 30 29 29 27 28 27 33 32 27 28 30 29 28 30 28 32 30 31 27 26 28 30 31 29 28 26 24
4 3 5 7 6 7 12 18 10 16 22 22 25 25 28 28 29 28 30 30 26 28 27 33 27 26 30 28 27 25 26 32 30 31 29 28 28 29 28 30 27 29 25 25
2 2 3 4 5 17 15 17 19 19 21 24 26 24 25 30 31 29 26 30 25 23 20 29 26 27 29 29 28 23 28 29 30 31 26 26 29 31 31 26 28 24 27 26
7 9 3 10 6 20 19 19 16 21 24 24 24 28 30 28 28 27 23 21 20 19 19 27 25 21 20 30 29 30 29 28 31 27 27 28 27 30 27 29 27 30 29 28
4 8 8 14 15 17 12 18 21 22 24 27 28 26 23 22 23 22 22 22 20 20 21 27 20 19 22 31 29 28 28 29 30 28 30 28 24 29 26 26 31 32 32 30
2 2 3 5 17 15 18 24 29 23 26 24 25 26 23 21 22 22 20 20 21 22 24 22 22 24 29 29 30 28 28 27 28 26 23 21 21 23 24 23 23 25 25 29
Wind_Direction
215 243 240 248 240 254 304 286 294 255 225 216 265 265 258 246 227 237 241 236 237 224 229 235 261 247 149 86 13 67 29 171 227 196 205 211 226 229 238 232 220 220 216 218
245 244 252 270 294 275 261 261 257 262 260 264 273 271 269 261 257 256 247 239 235 226 207 231 228 231 234 305 43 61 48 316 222 215 221 214 214 215 234 246 237 230 226 219
254 286 354 285 246 243 250 259 263 270 287 293 269 263 258 245 242 247 251 243 241 238 218 231 232 212 224 214 237 211 208 225 229 248 221 236 246 251 256 258 244 225 225 219
253 270 245 230 240 258 263 271 236 282 268 265 356 283 307 177 213 211 199 196 207 217 216 214 206 210 210 213 207 271 299 283 266 203 263 240 254 225 230 240 236 222 223 223
266 244 216 256 255 274 280 8 273 263 268 275 263 249 262 242 183 178 188 172 185 191 202 213 182 160 207 221 260 238 261 271 258 227 236 248 250 244 242 239 235 220 217 219
252 248 255 273 300 303 270 276 257 250 249 250 251 246 246 192 196 175 182 202 193 206 164 177 249 283 263 270 266 252 271 274 295 282 255 244 253 262 265 262 262 215 220 220
249 246 232 217 243 259 253 250 258 245 221 240 192 201 243 84 136 120 238 266 254 186 197 198 250 282 307 284 278 284 285 291 277 285 284 277 263 256 262 257 261 262 253 217
280 269 228 242 217 249 233 281 277 273 282 295 152 225 235 211 153 262 261 250 268 260 230 228 267 276 299 304 309 289 285 292 302 296 284 283 276 269 265 263 254 257 253 264
287 290 30 234 246 225 233 252 303 293 283 275 273 284 152 175 185 199 234 240 279 261 240 267 280 285 287 291 292 291 285 287 285 289 288 277 275 269 269 279 280 263 255 257
292 285 239 221 275 257 240 242 277 246 255 256 262 255 247 177 189 167 239 232 272 290 281 267 266 269 282 286 283 273 273 281 280 282 286 287 284 272 262 262 267 266 266 264
287 272 265 234 222 248 213 234 231 253 238 265 280 260 47 107 98 137 236 253 279 293 294 296 287 280 270 275 277 276 274 264 269 275 277 283 286 279 268 261 261 262 260 257
289 284 271 268 239 251 247 237 263 242 238 237 259 273 279 241 93 83 258 249 280 298 289 306 300 299 296 290 284 279 279 278 268 267 271 272 278 280 271 261 257 259 259 253
338 287 292 279 268 218 250 250 240 214 258 258 256 253 8 168 216 234 260 289 282 261 257 277 294 291 297 300 295 288 279 278 273 269 271 268 269 271 271 261 258 256 258 256
297 285 272 279 304 213 253 290 282 269 268 271 262 268 259 256 296 290 293 294 289 292 289 285 274 274 280 289 293 288 282 273 272 270 266 266 268 267 267 270 260 253 251 251
246 270 279 284 272 263 250 251 245 253 261 257 268 271 284 291 289 280 305 302 310 296 294 293 297 294 291 287 286 285 276 267 262 263 263 260 264 265 263 263 262 253 249 248
268 268 274 284 270 264 265 266 265 256 252 262 265 267 264 263 335 295 275 284 295 292 293 297 291 290 311 301 295 288 285 259 256 266 268 262 261 266 261 260 257 256 246 246
289 265 295 280 305 309 270 258 264 295 305 288 284 280 292 293 296 327 334 325 307 297 300 296 297 296 295 291 283 283 290 297 263 260 263 261 260 262 258 254 253 250 241 239
256 278 287 284 297 268 295 2 309 327 321 313 308 312 317 322 323 317 320 304 299 295 294 289 291 296 291 278 279 283 276 279 287 262 260 258 258 261 253 252 259 249 245 230
233 262 274 262 283 287 302 19 9 345 313 299 289 329 330 317 307 293 304 300 289 291 291 295 293 294 285 280 274 271 271 261 264 272 262 255 261 262 263 253 257 243 244 225
190 212 252 294 296 284 313 29 353 321 297 9 341 322 318 313 293 294 310 299 296 300 308 309 302 296 284 274 265 264 262 254 244 252 252 251 250 257 256 257 261 245 232 217
177 215 230 247 263 273 26 353 331 285 316 329 320 317 306 304 296 300 299 302 304 297 300 300 289 285 282 280 277 271 266 264 259 253 255 254 253 256 257 253 248 239 213 206
219 227 216 250 239 270 346 335 324 317 315 317 309 304 301 304 305 302 298 298 298 304 299 291 285 277 274 270 260 252 258 260 257 252 249 252 249 258 257 242 237 203 195 192
349 360 285 297 282 310 326 316 321 320 314 303 308 331 314 304 301 302 303 304 300 288 283 278 276 279 275 269 262 254 257 260 255 250 249 244 253 253 253 232 203 194 184 160
353 10 320 330 324 328 325 319 313 316 305 328 317 322 319 307 303 298 293 290 286 282 278 279 276 272 272 270 264 257 256 250 249 249 246 245 247 248 231 206 186 168 155 152
2 311 342 296 301 333 290 318 308 322 325 327 333 313 300 297 296 296 292 290 286 281 276 270 266 265 262 264 263 258 249 237 238 240 243 239 238 230 188 170 169 162 158 157
352 355 291 280 310 296 282 293 300 327 335 330 323 312 306 302 298 298 294 293 290 288 286 277 266 257 255 247 250 246 240 233 235 234 229 222 195 142 125 126 90 121 144 146
Height
737 745 743 730 721 724 723 726 720 711 708 726 727 720 711 704 707 713 714 716 718 721 725 725 726 731 731 735 742 734 739 739 737 736 748 751 752 751 756 755 750 754 756 759
743 744 730 721 725 735 736 735 729 718 712 725 727 723 711 705 704 704 707 708 711 714 719 723 726 729 727 727 731 732 738 739 739 747 742 740 746 744 748 752 750 751 754 755
741 726 724 730 737 741 735 734 727 725 718 722 730 724 712 698 697 697 698 698 702 707 715 721 726 727 728 728 729 734 736 740 740 739 735 737 738 730 734 742 748 745 747 747
730 722 735 736 738 731 737 719 722 733 740 739 713 729 697 692 702 701 702 705 707 710 715 718 725 727 726 729 729 731 733 734 735 731 738 733 735 733 731 740 741 734 738 741
735 729 737 740 731 725 734 725 733 734 735 733 722 725 703 685 696 702 703 702 706 709 714 715 718 721 725 727 728 731 733 736 737 734 736 734 735 734 734 734 731 729 732 731
725 719 726 729 730 725 726 731 734 730 729 734 714 712 697 685 692 696 698 700 701 704 708 714 717 719 719 722 724 728 729 729 729 729 729 730 732 730 731 725 723 721 722 723
720 718 714 721 738 734 733 738 739 730 723 715 690 702 688 685 684 689 697 700 700 701 708 712 715 715 717 719 719 720 720 723 725 724 723 723 727 722 727 726 721 717 713 713
730 731 720 720 727 733 739 744 747 747 719 706 697 710 690 679 686 696 700 700 700 701 702 706 712 714 714 714 716 716 718 717 718 718 719 718 719 716 718 715 714 713 712 709
736 734 725 723 717 721 730 743 727 738 718 717 700 690 688 687 694 699 699 698 702 701 702 708 709 710 713 714 716 715 714 715 715 714 713 716 715 714 712 709 709 709 709 709
731 746 724 722 727 720 726 729 748 734 746 738 707 695 690 685 691 693 698 699 701 702 704 705 705 706 709 711 713 712 712 712 711 710 709 706 706 707 706 707 705 704 704 704
732 737 733 736 734 727 730 729 731 727 726 741 726 707 689 691 691 693 697 698 699 701 702 701 699 700 703 704 704 704 705 705 704 703 702 701 700 700 700 700 700 700 700 700
733 740 735 723 710 715 719 729 727 752 737 724 726 710 682 694 685 693 697 693 688 692 697 698 697 697 698 698 697 696 697 697 696 697 696 694 695 695 694 694 694 695 693 693
752 758 756 733 716 709 717 715 715 725 744 730 726 712 685 687 686 684 685 683 682 685 687 691 695 695 695 695 695 693 691 691 688 689 690 689 688 688 688 688 687 687 686 685
757 749 749 745 734 751 744 727 717 716 728 716 706 700 687 682 685 680 677 677 677 677 678 681 685 687 689 691 692 691 691 689 685 685 683 682 683 683 682 679 677 677 678 678
751 753 744 733 722 720 721 720 715 712 707 714 704 695 685 680 679 676 673 674 676 677 679 678 678 680 681 681 684 686 683 682 681 682 681 677 677 676 673 671 670 670 670 671
746 756 746 737 717 714 713 706 703 701 701 697 693 690 684 672 674 678 680 678 676 679 677 677 678 676 677 678 680 682 672 670 670 671 671 670 668 666 664 664 663 662 662 662
760 752 748 736 712 710 711 695 690 692 691 700 697 671 668 673 667 667 672 677 680 680 680 676 675 673 677 677 677 676 672 667 661 663 664 661 660 658 656 655 654 653 652 654
749 750 748 740 727 726 692 696 697 683 682 676 672 670 669 670 671 674 678 681 678 674 672 672 669 668 670 670 670 666 665 662 658 653 653 652 651 648 645 645 644 644 644 645
752 757 756 745 728 713 691 694 697 701 698 689 683 681 686 687 682 676 677 675 672 668 662 660 660 660 658 660 661 661 659 655 653 648 644 643 643 642 638 637 636 636 638 639
751 758 764 740 745 730 698 703 702 701 700 693 696 697 695 691 688 669 670 667 661 657 656 657 656 653 650 649 650 649 647 645 642 642 637 635 636 637 634 632 630 630 632 633
755 758 753 740 741 718 708 706 706 717 704 701 697 696 691 684 678 662 660 656 656 654 651 653 649 644 642 640 640 639 635 634 632 630 627 627 628 629 628 627 625 625 626 628
739 745 744 733 735 731 711 713 723 712 707 704 698 688 680 675 667 661 653 648 646 643 646 645 640 635 631 630 629 627 626 623 622 621 620 620 620 622 621 619 617 618 621 626
741 743 746 740 727 716 716 720 715 712 709 701 688 687 685 671 662 656 650 646 646 644 639 635 629 623 620 619 618 615 612 613 611 609 610 612 613 612 610 609 610 613 617 626
736 740 748 741 718 725 722 721 716 711 703 695 694 685 684 677 669 660 652 644 637 632 627 622 617 612 609 608 606 603 603 601 600 599 600 601 602 601 600 601 603 609 614 621
760 752 755 744 730 740 725 722 713 701 700 693 693 693 681 672 661 654 644 635 627 619 613 609 603 598 595 594 591 589 589 589 588 588 589 591 590 590 591 595 599 604 611 617
765 766 766 754 749 749 736 722 710 697 693 692 694 678 671 664 653 645 635 625 615 604 596 588 585 581 578 580 577 575 575 577 578 581 581 582 579 580 587 597 598 606 614 621